AEROCUBE 7B (43042 NORAD) Tracking and Keplerian Element Data

This shows tracking and keplerian element data for the satellite.

Feedback or suggestion? Click here.




ElementValue
Catalog43042
NameAEROCUBE 7B
Epoch Orbit5697
Epoch Day345.86642806
Epoch Year2018
RAAN255.2169
Inclination51.6383
Eccentricity0.0004782
Argument of Perigee181.6882
Mean Anonmoly178.4087
Mean Motion15.39981264
Decay Rate2.518E-05
L11 43042U 17071F 18345.86642806 .00002518 00000-0 72067-4 0 9992
L22 43042 51.6383 255.2169 0004782 181.6882 178.4087 15.39981264 56976

Live tracking and technical data element details for AEROCUBE 7B (NORAD 43042). AEROCUBE 7B can be tracked NOW for your location showing map with azimuth and elevation plus other details from your city location.

Track the satellite on the map from your city or location and see movement details for azimuth, elevation, latitude, longitude, range, height, and movement on the map or in text.







IsCatalogInMostPopularTable: catalog: 43042, numindb: 174
Update: records affected: 1



GetName: 43042 AEROCUBE 7B

Hit Count: updated at: Thu, 13 Dec 2018 04:49:50 GMT